Tracking 31027 objects as of 19-Jul-2025
HD Live streaming from Space Station
objects crossing your sky now

SCOUT B DEB

Track SCOUT B DEB now!
10-day predictions


NORAD ID: 29174
Int'l Code: 1965-063Y
Perigee: 1,164.4 km
Apogee: 2,243.3 km
Inclination: 69.3 °
Period: 120.4 minutes
Semi major axis: 8074 km
RCS: 0.0067 m2 (small)
Launch date: August 10, 1965
Source: United States (US)
Launch site: WALLOPS ISLAND (WLPIS)

Note: This is SATELLITE DEBRIS
Your satellite tracking list
COSMOS 2251 DEB
Track 1 satellite(s)




NASA's NSSDC Master Catalog

Two Line Element Set (TLE):
1 29174U 65063Y   25177.12195583  .00000629  00000-0  45035-2 0  9995
2 29174  69.3004 326.7316 0668021 129.5565 236.6432 11.96471630 27262
Source of the keplerian elements: AFSPC